Regional Weather Roundup
Issued by NWS Burlington, VT

Home | Current Version | Previous Version | Text Only | Print | Product List | Glossary On
Versions: 1 2 3 4 5 6 7 8 9 10 11 12 13 14 15 16 17 18 19 20 21 22 23 24 25 26 27 28 29 30 31 32 33 34 35 36 37 38 39 40 41 42 43 44 45 46 47 48 49 50
000
ASUS41 KBTV 271830
RWRBTV
VERMONT REGIONAL WEATHER ROUNDUP
NATIONAL WEATHER SERVICE BURLINGTON VT
200 PM EDT SAT AUG 27 2016

NOTE: "FAIR" INDICATES FEW OR NO CLOUDS BELOW 12,000 FEET WITH NO
SIGNIFICANT WEATHER AND/OR OBSTRUCTIONS TO VISIBILITY.

* THESE REPORTS ARE NOT UNDER NWS QUALITY CONTROL AND/OR DO NOT
  REPORT WEATHER SUCH AS PRECIPITATION AND FOG.

VTZ001>019-271900-
_____VERMONT_____


CITY           SKY/WX    TMP DP  RH WIND       PRES   REMARKS
BURLINGTON     FAIR      81  61  50 NW7       30.20F
6HR MIN TEMP:  69; 6HR MAX TEMP:  82;

MONTPELIER     PTSUNNY   78  58  49 SE5       30.25F
6HR MIN TEMP:  61; 6HR MAX TEMP:  79;

MORRISVILLE    FAIR      81  58  45 N13       30.22F
6HR MIN TEMP:  63; 6HR MAX TEMP:  81;

ST. JOHNSBURY*   N/A     79  55  43 MISG      30.19S
6HR MIN TEMP:  58; 6HR MAX TEMP:  80;

LYNDONVILLE*   FAIR      76  57  51 NW3       30.24S
6HR MIN TEMP:  60; 6HR MAX TEMP:  77;

MIDDLEBURY*    FAIR      81  64  55 NW3       30.20S
6HR MIN TEMP:  64; 6HR MAX TEMP:  81; 6HR PCP:  0.01;

RUTLAND*       FAIR      80  62  54 N7        30.20S
6HR MIN TEMP:  63; 6HR MAX TEMP:  80;

SPRINGFIELD    CLOUDY    80  62  54 N3        30.19S
6HR MIN TEMP:  58; 6HR MAX TEMP:  81;

HIGHGATE*      FAIR      78  60  53 N7        30.22S
6HR MIN TEMP:  65; 6HR MAX TEMP:  78;

NEWPORT*       FAIR      75  58  55 NE9       30.23S
6HR MIN TEMP:  62; 6HR MAX TEMP:  75;

BENNINGTON     FAIR      82  59  45 CALM      30.20S
6HR MIN TEMP:  64; 6HR MAX TEMP:  82;

GALLUP MILLS*    N/A     77 N/A N/A MISG        N/A
UNION VILLAGE*   N/A     84 N/A N/A MISG        N/A
MT. MANSFIELD*   N/A     68 N/A N/A N12         N/A

_____LAKE CHAMPLAIN_____


CITY           SKY/WX    TMP DP  RH WIND       PRES   REMARKS
BURTON ISLAND*   N/A     79  61  53 W1          N/A
COLCHESTER RF*   N/A     73  63  68 N13         N/A
DIAMOND ISL*     N/A     73  63  68 N10         N/A

$$

NYZ007-026>031-035-052-083-087-271900-
_____NORTHERN NEW YORK_____


CITY           SKY/WX    TMP DP  RH WIND       PRES   REMARKS
PLATTSBURGH    FAIR      77  61  57 NE8       30.21S
6HR MIN TEMP:  69; 6HR MAX TEMP:  77;

SARANAC LAKE   FAIR      78  54  43 CALM      30.22F
6HR MIN TEMP:  58; 6HR MAX TEMP:  79;

MASSENA        FAIR      80  59  48 NE8       30.22S
6HR MIN TEMP:  65; 6HR MAX TEMP:  80;

OGDENSBURG*    SUNNY     82  64  54 N9        30.19F
POTSDAM*       SUNNY     81  64  57 E3        30.20S
STARK FALLS*     N/A     32 N/A N/A NW6         N/A  WCI  26
WATERTOWN      FAIR      78  60  53 W13       30.20R
6HR MIN TEMP:  67; 6HR MAX TEMP:  79;

FT DRUM        FAIR      81  61  50 SW6       30.19S
6HR MIN TEMP:  65; 6HR MAX TEMP:  81;

ALBANY         FAIR      84  61  45 E5        30.18F
6HR MIN TEMP:  68; 6HR MAX TEMP:  84;

GLENS FALLS    FAIR      82  60  47 S3        30.18F
6HR MIN TEMP:  66; 6HR MAX TEMP:  84;


$$
NHZ002-005-011-271900-
_____NEW HAMPSHIRE_____


CITY           SKY/WX    TMP DP  RH WIND       PRES   REMARKS
LEBANON        FAIR      84  59  42 VRB5      30.18F
6HR MIN TEMP:  61; 6HR MAX TEMP:  84;

KEENE          CLOUDY    83  62  49 VRB5      30.18F
6HR MIN TEMP:  60; 6HR MAX TEMP:  83;

MT WASHINGTON  PTSUNNY   54  48  82 NW14G25     N/A
6HR MIN TEMP:  47; 6HR MAX TEMP:  54;

PLYMOUTH       FAIR      82  56  40 NW3       30.17F
6HR MIN TEMP:  61; 6HR MAX TEMP:  82;

WHITEFIELD     FAIR      78  56  46 N5        30.21F
6HR MIN TEMP:  57; 6HR MAX TEMP:  79;


$$

_____REGIONAL QUEBEC LOCATIONS_____


CITY           SKY/WX    TMP DP  RH WIND       PRES   REMARKS
MONTREAL       MOSUNNY   77  57  50 NW9       30.21F
QUEBEC CITY    PTSUNNY   73  50  43 E6        30.22S
SHERBROOKE     MOSUNNY   75  55  50 NW7       30.22S

_____REGIONAL ONTARIO LOCATIONS_____


CITY           SKY/WX    TMP DP  RH WIND       PRES   REMARKS
OTTAWA         MOSUNNY   79  63  57 NE6       30.21F

______KEY______
VSB  - VISIBILITY IN MILES
WCI  - WIND CHILL INDEX
HX   - HEAT INDEX
$$
NNNN




USA.gov is the U.S. government's official web portal to all federal, state and local government web resources and services.